When you browse on this site, cookies collect data to enhance your experience and personalize the content and advertising you see.
Visit our Privacy Policy to learn more. By continuing to use the site, you agree to this use of cookies and data.
  • In Italy
  • List of Countries
  • For 7 days
  • Water Temperature
  • Satellite Maps
  • Weather Map
  • Weather Widgets
  • user-avatar
    Login

    Hourly Weather Klagenfurt

    Today, 12 December, Wednesday

    Time Temperature Precipitation Wind Pressure Humidity
    00:00 -2°C° 0 mm 1 mps 690 mmHg 67%
    01:00 -2°C° 0 mm 1 mps 690 mmHg 67%
    02:00 -2°C° 0 mm 1 mps 690 mmHg 67%
    03:00 -2°C° 0 mm 1 mps 690 mmHg 67%
    04:00 -2°C° 0 mm 1 mps 690 mmHg 67%
    05:00 -2°C° 0 mm 1 mps 690 mmHg 67%
    06:00 -2°C° 0 mm 1 mps 690 mmHg 66%
    07:00 -2°C° 0 mm 1 mps 690 mmHg 65%
    08:00 -1°C° 0 mm 1 mps 690 mmHg 61%
    09:00 0°C° 0 mm 1 mps 690 mmHg 56%
    10:00 +1°C° 0 mm 1 mps 691 mmHg 52%
    11:00 +2°C° 0 mm 1 mps 691 mmHg 48%
    12:00 +3°C° 0 mm 1 mps 691 mmHg 45%
    13:00 +4°C° 0 mm 1 mps 691 mmHg 42%
    14:00 +2°C° 0 mm 1 mps 691 mmHg 46%
    15:00 0°C° 0 mm 0 mps 690 mmHg 51%
    16:00 -1°C° 0 mm 0 mps 690 mmHg 56%
    17:00 -2°C° 0 mm 0 mps 690 mmHg 59%
    18:00 -1°C° 0 mm 1 mps 690 mmHg 62%
    19:00 -2°C° 0 mm 1 mps 690 mmHg 65%
    20:00 -2°C° 0 mm 1 mps 690 mmHg 66%
    21:00 -2°C° 0 mm 1 mps 690 mmHg 67%
    22:00 -3°C° 0 mm 1 mps 690 mmHg 69%
    23:00 -3°C° 0 mm 1 mps 690 mmHg 70%

    Tomorrow, 13 December, Thursday

    Time Temperature Precipitation Wind Pressure Humidity
    00:00 -3°C° 0 mm 1 mps 690 mmHg 71%
    01:00 -3°C° 0 mm 1 mps 690 mmHg 72%
    02:00 -3°C° 0 mm 1 mps 690 mmHg 73%
    03:00 -3°C° 0 mm 1 mps 689 mmHg 75%
    04:00 -3°C° 0 mm 1 mps 689 mmHg 76%
    05:00 -3°C° 0.1 mm 1 mps 689 mmHg 78%
    06:00 -3°C° 0.1 mm 1 mps 689 mmHg 80%
    07:00 -3°C° 0.1 mm 1 mps 689 mmHg 82%
    08:00 -2°C° 0.2 mm 1 mps 689 mmHg 81%
    09:00 -2°C° 0.2 mm 1 mps 689 mmHg 79%
    10:00 -1°C° 0.2 mm 1 mps 689 mmHg 78%
    11:00 -3°C° 0.2 mm 2 mps 688 mmHg 78%
    12:00 -3°C° 0.2 mm 2 mps 688 mmHg 77%
    13:00 -2°C° 0.2 mm 2 mps 687 mmHg 77%
    14:00 -3°C° 0.2 mm 2 mps 687 mmHg 79%
    15:00 -3°C° 0.2 mm 2 mps 687 mmHg 81%
    16:00 -1°C° 0.2 mm 1 mps 687 mmHg 84%
    17:00 -1°C° 0.1 mm 1 mps 687 mmHg 85%
    18:00 -2°C° 0.1 mm 1 mps 687 mmHg 87%
    19:00 -2°C° 0.1 mm 1 mps 688 mmHg 88%
    20:00 -2°C° 0.1 mm 1 mps 688 mmHg 89%
    21:00 -2°C° 0.1 mm 1 mps 688 mmHg 89%
    22:00 -2°C° 0.1 mm 1 mps 688 mmHg 89%
    23:00 -2°C° 0.1 mm 1 mps 688 mmHg 89%

    Day after tomorrow, 14 December, Friday

    Time Temperature Precipitation Wind Pressure Humidity
    00:00 -2°C° 0.1 mm 1 mps 688 mmHg 89%
    01:00 -3°C° 0.1 mm 1 mps 688 mmHg 89%
    02:00 -3°C° 0.1 mm 1 mps 688 mmHg 90%
    03:00 -3°C° 0.1 mm 1 mps 687 mmHg 90%
    04:00 -3°C° 0.1 mm 1 mps 687 mmHg 90%
    05:00 -3°C° 0.1 mm 1 mps 687 mmHg 90%
    06:00 -3°C° 0.1 mm 1 mps 688 mmHg 89%
    07:00 -3°C° 0.1 mm 1 mps 688 mmHg 89%
    08:00 -2°C° 0.1 mm 1 mps 688 mmHg 86%
    09:00 -4°C° 0.1 mm 2 mps 688 mmHg 82%
    10:00 -3°C° 0.1 mm 2 mps 689 mmHg 79%
    11:00 -3°C° 0.1 mm 2 mps 689 mmHg 77%
    12:00 -2°C° 0.1 mm 2 mps 688 mmHg 75%
    13:00 -2°C° 0.1 mm 2 mps 688 mmHg 73%
    14:00 -2°C° 0 mm 2 mps 688 mmHg 76%
    15:00 -3°C° 0 mm 2 mps 688 mmHg 79%
    16:00 -1°C° 0 mm 1 mps 688 mmHg 82%
    17:00 -2°C° 0 mm 1 mps 689 mmHg 84%
    18:00 -2°C° 0 mm 1 mps 689 mmHg 86%
    19:00 -2°C° 0 mm 1 mps 689 mmHg 88%
    20:00 -3°C° 0 mm 1 mps 689 mmHg 88%
    21:00 -3°C° 0 mm 1 mps 690 mmHg 88%
    22:00 -3°C° 0 mm 1 mps 690 mmHg 88%
    23:00 -3°C° 0 mm 1 mps 690 mmHg 88%

    15 December, Saturday

    Time Temperature Precipitation Wind Pressure Humidity
    00:00 -3°C° 0 mm 1 mps 690 mmHg 87%
    01:00 -3°C° 0 mm 1 mps 690 mmHg 87%
    02:00 -4°C° 0 mm 1 mps 690 mmHg 87%
    03:00 -4°C° 0 mm 1 mps 690 mmHg 87%
    04:00 -4°C° 0 mm 1 mps 690 mmHg 87%
    05:00 -7°C° 0 mm 2 mps 690 mmHg 86%
    06:00 -7°C° 0 mm 2 mps 691 mmHg 85%
    07:00 -7°C° 0 mm 2 mps 691 mmHg 84%
    08:00 -6°C° 0 mm 2 mps 691 mmHg 79%
    09:00 -5°C° 0 mm 2 mps 692 mmHg 74%
    10:00 -4°C° 0 mm 2 mps 692 mmHg 68%
    11:00 -3°C° 0 mm 2 mps 692 mmHg 65%
    12:00 -2°C° 0 mm 2 mps 693 mmHg 61%
    13:00 -1°C° 0 mm 2 mps 693 mmHg 58%
    14:00 -2°C° 0 mm 2 mps 693 mmHg 63%
    15:00 -3°C° 0 mm 2 mps 693 mmHg 67%
    16:00 -2°C° 0 mm 1 mps 693 mmHg 72%
    17:00 -3°C° 0 mm 1 mps 693 mmHg 74%
    18:00 -3°C° 0 mm 1 mps 693 mmHg 77%
    19:00 -4°C° 0 mm 1 mps 694 mmHg 79%
    20:00 -4°C° 0 mm 1 mps 694 mmHg 78%
    21:00 -4°C° 0 mm 1 mps 694 mmHg 78%
    22:00 -6°C° 0 mm 1 mps 694 mmHg 77%
    23:00 -6°C° 0 mm 1 mps 694 mmHg 75%

    16 December, Sunday

    Time Temperature Precipitation Wind Pressure Humidity
    00:00 -6°C° 0 mm 1 mps 694 mmHg 74%
    01:00 -6°C° 0 mm 1 mps 694 mmHg 72%
    02:00 -6°C° 0 mm 1 mps 694 mmHg 71%
    03:00 -6°C° 0 mm 1 mps 694 mmHg 69%
    04:00 -6°C° 0 mm 1 mps 694 mmHg 68%
    05:00 -6°C° 0 mm 1 mps 694 mmHg 67%
    06:00 -6°C° 0 mm 1 mps 694 mmHg 66%
    07:00 -6°C° 0 mm 1 mps 694 mmHg 66%
    08:00 -4°C° 0 mm 1 mps 694 mmHg 62%
    09:00 -2°C° 0 mm 1 mps 694 mmHg 58%
    10:00 -1°C° 0 mm 1 mps 695 mmHg 55%
    11:00 0°C° 0 mm 1 mps 695 mmHg 52%
    12:00 +1°C° 0 mm 1 mps 694 mmHg 50%
    13:00 +2°C° 0 mm 1 mps 694 mmHg 48%
    14:00 +1°C° 0 mm 1 mps 694 mmHg 53%
    15:00 0°C° 0 mm 1 mps 693 mmHg 59%
    16:00 -1°C° 0 mm 1 mps 693 mmHg 65%
    17:00 -1°C° 0 mm 1 mps 693 mmHg 64%
    18:00 -1°C° 0 mm 1 mps 693 mmHg 64%
    19:00 -1°C° 0 mm 1 mps 693 mmHg 64%
    20:00 -1°C° 0 mm 1 mps 693 mmHg 62%
    21:00 -1°C° 0 mm 1 mps 693 mmHg 61%
    22:00 -1°C° 0 mm 1 mps 693 mmHg 59%
    23:00 -1°C° 0 mm 1 mps 693 mmHg 58%

    17 December, Monday

    Time Temperature Precipitation Wind Pressure Humidity
    00:00 -1°C° 0 mm 1 mps 693 mmHg 56%
    01:00 -1°C° 0 mm 1 mps 692 mmHg 55%
    02:00 -1°C° 0 mm 1 mps 692 mmHg 54%
    03:00 -1°C° 0 mm 1 mps 691 mmHg 53%
    04:00 0°C° 0 mm 1 mps 691 mmHg 52%
    05:00 -1°C° 0 mm 1 mps 691 mmHg 52%
    06:00 -1°C° 0 mm 1 mps 691 mmHg 52%
    07:00 -1°C° 0 mm 1 mps 690 mmHg 52%
    08:00 0°C° 0 mm 1 mps 691 mmHg 51%
    09:00 +1°C° 0 mm 1 mps 691 mmHg 50%
    10:00 +2°C° 0 mm 1 mps 691 mmHg 49%
    11:00 +3°C° 0 mm 1 mps 691 mmHg 50%
    12:00 +3°C° 0 mm 1 mps 691 mmHg 52%
    13:00 +4°C° 0 mm 1 mps 691 mmHg 53%
    14:00 +3°C° 0 mm 1 mps 690 mmHg 58%
    15:00 +3°C° 0 mm 1 mps 690 mmHg 63%
    16:00 +2°C° 0 mm 1 mps 690 mmHg 68%
    17:00 +2°C° 0.1 mm 1 mps 690 mmHg 70%
    18:00 +1°C° 0.1 mm 1 mps 691 mmHg 73%
    19:00 +1°C° 0.1 mm 1 mps 691 mmHg 75%
    20:00 +1°C° 0.3 mm 1 mps 691 mmHg 78%
    21:00 +1°C° 0.3 mm 1 mps 692 mmHg 82%
    22:00 +1°C° 0.3 mm 1 mps 692 mmHg 85%
    23:00 +1°C° 0.3 mm 1 mps 692 mmHg 86%
    Show more